Location: Boiro
(42.6475°N, 8.8834°W)
Time: 09:42:39
(UTC+01:00)

Transit 4A - Pass Details

Date: 25 September 2023
Orbit: 864 x 979 km, 66.8° (Epoch: 02 December)

Event Time Altitude Azimuth Distance (km) Brightness Sun altitude
Rises 00:00:31 0° 328° (NNW) 3,676 11.9 -36.6°
Reaches altitude 10° 00:03:06 10° 327° (NNW) 2,716 11.0 -37.0°
Enters shadow 00:07:04 41° 322° (NW) 1,372 9.0 -37.5°
